Date,TemperatureHighF,TemperatureAvgF,TemperatureLowF,DewpointHighF,DewpointAvgF,DewpointLowF,HumidityHigh,HumidityAvg,HumidityLow,PressureMaxIn,PressureMinIn,WindSpeedMaxMPH,WindSpeedAvgMPH,GustSpeedMaxMPH,PrecipitationSumIn
2014-1-1,68,48,34,49,37,29,84,67,49,30.27,29.93,7,2,20,0.00
2014-1-2,43,31,23,23,20,16,89,64,41,30.56,30.31,4,1,22,0.00
2014-1-3,51,36,22,26,24,19,92,64,35,30.55,30.12,5,1,15,0.00
2014-1-4,68,51,39,52,40,-100,89,70,49,30.11,29.78,8,3,21,0.00
2014-1-5,38,32,24,23,18,12,78,59,48,30.55,30.09,5,3,17,0.00
2014-1-6,32,25,16,8,6,3,59,44,34,30.86,30.68,2,1,10,0.00
2014-1-7,47,40,30,16,15,13,52,35,26,30.63,30.37,6,4,14,0.00
2014-1-8,46,42,37,45,40,32,100,92,76,30.29,30.18,3,1,10,0.02
2014-1-9,46,42,38,45,41,37,97,96,96,30.24,30.06,2,0,8,0.02
2014-1-10,68,61,45,62,58,44,97,89,73,30.06,29.71,3,1,9,0.02
2014-1-11,68,61,44,41,34,30,89,39,24,30.15,29.86,2,0,8,0.01
2014-1-12,72,64,48,36,34,31,58,34,26,30.04,29.86,8,4,18,0.00
2014-1-13,63,59,50,57,33,28,83,38,27,30.08,29.80,7,2,17,0.00
2014-1-14,65,58,48,37,31,25,46,36,27,30.22,30.08,5,1,16,0.00
2014-1-15,57,50,40,28,26,25,54,39,31,30.45,30.24,4,1,7,0.00
2014-1-16,65,58,44,37,32,27,57,39,25,30.16,30.11,2,1,10,0.00
2014-1-17,55,50,42,18,16,14,37,26,21,30.42,30.30,3,1,12,0.00
2014-1-18,68,62,49,33,29,26,40,29,25,30.23,30.07,7,3,13,0.00
2014-1-19,64,57,45,30,29,28,54,35,26,30.35,30.14,2,1,9,0.00
2014-1-20,72,68,60,41,39,37,46,35,29,29.96,29.88,2,1,8,0.00
2014-1-21,50,45,38,17,15,12,39,29,23,30.48,30.34,3,1,12,0.00
2014-1-22,57,53,41,30,28,26,55,39,33,30.20,30.09,2,1,10,0.00
2014-1-23,33,30,26,19,10,0,55,43,30,30.74,30.57,3,2,20,0.00
2014-1-24,41,34,23,6,3,2,47,28,20,30.79,30.47,4,1,11,0.00
2014-1-25,68,60,43,37,31,20,40,33,30,30.24,30.07,2,0,4,0.00
2014-1-26,73,65,51,39,38,36,59,37,28,29.85,29.67,4,1,10,0.00
2014-1-27,40,36,30,5,2,-2,28,23,19,30.35,30.29,5,2,16,0.00
2014-1-28,36,32,23,16,10,4,45,40,33,30.60,30.48,2,1,9,0.00
2014-1-29,46,41,29,18,13,11,58,33,24,30.56,30.32,4,2,9,0.00
2014-1-30,57,49,34,43,35,22,64,59,54,30.09,29.88,10,6,25,0.00
2014-1-31,73,66,56,54,53,51,84,63,51,29.91,29.78,6,3,11,0.00
2014-2-1,48,47,45,39,38,36,71,71,70,29.97,29.91,1,1,7,0.00
2014-2-2,33,31,28,30,29,25,93,91,89,30.27,30.20,4,2,12,0.18
2014-2-3,41,38,32,35,33,27,88,82,75,30.37,30.11,2,0,6,0.01
2014-2-4,45,42,38,41,39,34,95,89,80,30.11,29.95,2,0,6,0.00
2014-2-5,30,26,21,18,17,12,74,67,61,30.63,30.55,5,2,14,0.00
2014-2-6,24,21,17,18,15,11,81,76,70,30.70,30.56,1,0,8,0.00
2014-2-7,31,30,26,28,24,20,90,81,73,30.50,30.32,1,0,6,0.00
2014-2-8,52,42,30,41,37,28,93,82,66,30.32,30.09,1,0,7,0.01
2014-2-9,45,42,38,42,40,36,96,92,87,30.18,30.10,2,0,6,0.01
2014-2-10,32,30,30,30,28,28,94,94,93,30.36,30.29,1,0,8,0.00
2014-2-11,35,32,28,28,26,23,84,79,72,30.45,30.32,2,0,7,0.00
2014-2-12,51,43,32,33,28,25,80,57,46,30.33,30.13,2,0,8,0.00
2014-2-13,66,56,38,40,37,34,84,50,36,30.11,29.91,4,3,11,0.00
2014-5-13,66,64,61,50,49,48,64,59,55,30.26,30.16,1,0,9,0.01
2014-5-14,72,60,52,52,47,39,93,65,34,30.30,30.19,3,1,11,0.23
2014-5-15,83,64,49,49,45,37,90,57,20,30.27,30.08,4,1,11,0.00
2014-5-16,86,71,56,56,50,45,80,51,28,30.15,29.88,4,1,12,0.00
2014-5-17,82,72,60,62,51,-100,70,51,38,30.02,29.87,4,1,11,0.00
2014-5-18,83,73,63,62,61,57,88,66,47,30.09,29.96,3,1,12,0.00
2014-5-27,79,70,65,68,65,63,95,84,59,29.99,29.85,2,0,7,0.26
2014-5-28,83,70,64,67,65,62,95,84,57,29.95,29.88,1,0,6,0.04
2014-5-29,90,80,75,68,67,66,80,66,46,29.91,29.80,0,0,5,0.00
2014-5-30,85,79,70,69,68,66,88,69,56,29.89,29.83,1,0,5,0.00
2014-5-31,81,70,70,71,56,-100,91,75,71,29.96,29.87,2,0,8,0.06
2014-6-1,89,82,74,72,71,69,88,69,52,29.97,29.82,1,0,10,0.06
2014-6-2,86,82,76,72,71,70,81,69,60,30.01,29.93,2,1,12,0.00
2014-6-3,90,81,74,73,71,70,90,74,55,30.01,29.87,2,0,9,0.00
2014-6-4,91,84,76,73,72,70,86,69,54,29.86,29.75,4,2,11,0.00
2014-6-5,89,83,78,74,72,71,79,70,59,29.85,29.76,3,1,15,0.00
2014-6-6,91,83,75,73,72,70,87,70,53,29.96,29.80,4,1,13,0.00
2014-6-7,93,79,76,72,59,-100,82,60,47,29.93,29.83,4,2,14,0.00
2014-6-8,87,79,71,72,70,67,90,75,59,29.98,29.77,5,1,13,0.07
2014-6-9,79,72,63,74,66,61,94,83,62,29.83,29.72,3,1,9,0.80
2014-6-17,91,90,88,71,71,71,58,56,53,29.95,29.87,5,4,9,0.00
2014-6-18,88,80,76,73,72,70,84,75,61,29.97,29.91,5,2,13,0.03
2014-6-19,82,80,77,72,72,71,82,76,72,30.01,29.93,2,1,9,0.00
2014-6-20,92,85,77,72,70,68,82,61,46,30.08,29.97,2,0,7,0.00
2014-6-21,83,66,78,71,42,-100,80,62,64,30.02,29.91,1,0,6,0.00
2014-6-22,78,72,69,71,69,67,93,89,80,29.93,29.89,1,0,4,0.12
2014-6-23,88,76,67,71,69,65,94,81,57,29.93,29.83,1,0,8,0.50
2014-6-24,83,75,71,72,69,68,91,82,69,30.02,29.99,0,0,4,0.00
2014-6-25,73,73,73,71,71,71,93,93,92,30.01,29.97,1,0,4,0.36
2014-7-16,88,80,71,71,66,57,90,62,48,30.01,29.86,1,0,9,0.28
2014-7-17,68,66,65,67,65,63,95,95,94,29.96,29.88,3,1,10,0.07
2014-7-18,73,66,64,65,63,61,94,90,76,30.03,29.96,1,0,6,0.09
2014-7-19,76,70,66,65,64,63,90,81,70,30.06,29.99,1,0,4,0.00
2014-7-20,84,72,65,73,66,63,94,83,70,30.06,29.93,0,0,4,0.00
2014-7-21,93,80,72,77,72,69,90,78,53,30.04,29.94,1,0,5,0.00
2014-7-22,87,82,77,76,73,71,84,75,60,30.06,29.99,1,0,4,0.00
2014-7-27,84,84,84,71,71,71,66,66,66,29.94,29.94,1,1,7,0.00
2014-7-28,87,86,86,74,72,71,65,63,61,30.11,29.99,0,0,7,0.00
2014-7-29,85,77,72,68,64,62,80,65,53,30.14,30.04,0,0,5,0.00
2014-7-30,88,77,72,74,70,67,92,80,63,30.07,29.89,1,0,8,0.11
2014-7-31,73,60,71,70,58,68,94,89,82,29.98,29.91,1,0,7,0.54
2014-8-1,78,76,70,69,68,66,88,77,73,30.06,30.01,1,0,5,0.00
2014-8-2,86,68,67,70,58,65,93,59,54,30.11,30.01,1,0,5,0.00